Regional Weather Roundup
Issued by NWS

Home | Current Version | Previous Version | Graphics & Text | Print | Product List | Glossary On
Versions: 1 2 3 4 5 6 7 8 9 10 11 12 13 14 15 16 17 18 19 20 21 22 23 24 25 26 27 28 29 30 31 32 33 34 35 36 37 38 39 40 41 42 43 44 45 46 47 48 49 50
000
ASUS43 KMPX 042310
RWRMN
WEATHER ROUNDUP FOR MINNESOTA
NATIONAL WEATHER SERVICE TWIN CITIES/CHANHASSEN MN
600 PM CDT FRI SEP 04 2015


NOTE: "FAIR" INDICATES FEW OR NO CLOUDS BELOW 12,000 FEET WITH NO
SIGNIFICANT WEATHER AND/OR OBSTRUCTIONS TO VISIBILITY. N/A MEANS
CURRENT SKY AND/OR WEATHER CONDITIONS ARE NOT AVAILABLE.

MNZ060>063-068>070-050000-
   Twin Cities Metro

CITY           SKY/WX    TMP DP  RH WIND       PRES   REMARKS
TWIN CITIES    PTSUNNY   86  72  62 SE9       29.90R HX  92
ST PAUL        PTSUNNY   84  73  69 SE9       29.90R HX  90
CRYSTAL        MOSUNNY   89  72  56 SE15      29.88R HX  96
LAKEVILLE      MOSUNNY   84  73  70 SE7       29.91S HX  91
EDEN PRAIRIE   MOSUNNY   88  74  63 SE13      29.89R HX  96
SOUTH ST PAUL  PTSUNNY   86  71  60 SE7       29.90S HX  90
LAKE ELMO      FAIR      86  73  66 SE9       29.92S HX  93
$$
MNZ001>005-007-008-013>017-022>024-027-028-050000-
   Northwest Minnesota

CITY           SKY/WX    TMP DP  RH WIND       PRES   REMARKS
BEMIDJI        CLOUDY    78  71  78 SE5       29.89S
HALLOCK        CLOUDY    68  66  94 CALM      29.81F
ROSEAU         RAIN      75  72  88 S3        29.83S
WARROAD        CLOUDY    79  73  83 SE5       29.84F
THIEF RVR FALL CLOUDY    73  72  94 SE7       29.84F
CROOKSTON      CLOUDY    75  72  88 S7        29.83R
FOSSTON        RAIN      75  70  83 E3        29.87F
DETROIT LAKES  CLOUDY    81  70  69 SE3       29.87F
MOORHEAD       CLOUDY    77  72  83 E3        29.83S
PARK RAPIDS    TSTM      81  73  76 CALM      29.88R
MAHNOMEN       LGT RAIN  76  72  86 E3        29.86F
$$
MNZ006-009>011-018-025>026-050000-
   North Central Minnesota

CITY           SKY/WX    TMP DP  RH WIND       PRES   REMARKS
BAUDETTE       CLOUDY    82  70  66 S9        29.86F
FLAG ISLAND    CLOUDY    73  70  88 S6        29.83F
INTL FALLS     PTSUNNY   82  70  66 SE12      29.89S
WASKISH        CLOUDY    81  72  74 S3        29.88S
BIG FORK       CLOUDY    81  70  69 SE8       29.91S
LONGVILLE      CLOUDY    81  72  74 SE6       29.90S
GRAND RAPIDS     N/A     81  70  69 SE10G18   29.92R
CRANE LAKE     MOSUNNY   81  66  61 S3        29.94F
ORR            MOSUNNY   81  66  61 SE8       29.90S
COOK           MOSUNNY   79  66  65 SE8G18    29.94S
WALKER         MOCLDY    78  72  80 SE5       29.89S
$$
MNZ012-019>021-037-050000-
   Northeast Minnesota

CITY           SKY/WX    TMP DP  RH WIND       PRES   REMARKS
DULUTH         MOSUNNY   74  65  73 E12       29.97R
ELY            SUNNY     79  63  57 SE15      29.97F
HIBBING        MOSUNNY   79  68  69 SE14      29.94S
EVELETH        SUNNY     77  66  69 SE9G16    29.96F
DULUTH HARBOR  SUNNY     63  59  88 E7        29.97R
TWO HARBORS    SUNNY     75  64  69 E14       29.96S
SILVER BAY     SUNNY     72  61  68 NE10G16   29.98F
GRAND MARAIS     N/A     71  57  61 NE12G20   30.01S
G MARAIS ARPRT SUNNY     72  55  56 E7        30.07R
$$
MNZ029>031-032-039>041-046>048-054>057-064-050000-
   West Central Minnesota

CITY           SKY/WX    TMP DP  RH WIND       PRES   REMARKS
FERGUS FALLS   CLOUDY    81  72  74 S6        29.83R
WHEATON        PTSUNNY   81  70  69 SE12G17   29.84S
MORRIS         CLOUDY    81  72  74 S15       29.85R
ALEXANDRIA     TSTM      81  72  74 S13       29.89R
ELBOW LAKE     FAIR      80  73  77 S9        29.85R HAZE
WADENA         CLOUDY    82  72  69 SE7       29.87S
GLENWOOD       CLOUDY    81  72  74 S6        29.89R
APPLETON       CLOUDY    81  72  74 S8        29.83F
BENSON         LGT RAIN  81  70  69 SW5       29.85F
ORTONVILLE     CLOUDY    81  72  74 SE9       29.84R
MADISON        CLOUDY    81  68  65 S9        29.83F
WILLMAR        FAIR      82  73  74 S3        29.88S
$$
MNZ033>034-036-042>043-049>051-058-059-050000-
   Central Minnesota

CITY           SKY/WX    TMP DP  RH WIND       PRES   REMARKS
ST CLOUD       MOSUNNY   86  74  67 SE13      29.88R HX  94
SAUK CENTRE    FAIR      83  73  69 S9        29.88R
PAYNESVILLE    PTSUNNY   84  70  63 SE8       29.89R
AITKIN         PTSUNNY   84  73  70 SE12G17   29.89R HX  91
PINE RIVER     CLOUDY    81  72  74 CALM      29.93R
BRAINERD       PTSUNNY   82  71  69 SE7       29.89R
STAPLES        PTSUNNY   81  72  74 SE5       29.88S
LONG PRAIRIE   FAIR      82  72  69 SE8       29.89R
LITTLE FALLS   PTSUNNY   86  70  58 SE10      29.88S HX  90
LITCHFIELD     MOSUNNY   84  75  74 CALM      29.88S HX  92
BUFFALO        MOSUNNY   87  72  61 SE9G17    29.89R HX  92
MAPLE LAKE     MOSUNNY   87  76  69 SE10G17   29.89R HX  98
$$
MNZ037-044-045-052-053-050000-
   East Central Minnesota

CITY           SKY/WX    TMP DP  RH WIND       PRES   REMARKS
PRINCETON      MOSUNNY   88  73  62 SE7       29.89R HX  96
MORA           PTSUNNY   84  72  65 SE7G17    29.92R
CAMBRIDGE        N/A     88  72  58 SE6       29.88S HX  94
RUSH CITY      MOSUNNY   84  72  67 SE10G16   29.91S
MOOSE LAKE     MOSUNNY   79  68  69 NE6       29.91R
HINCKLEY       FAIR      82  72  69 SE8       29.91F
CLOQUET        SUNNY     70  61  73 E13       29.96R
MCGREGOR       PTSUNNY   82  72  69 SE7G17    29.91S
$$
MNZ071>073-080-081-089-090-097-098-050000-
   Southwest Minnesota

CITY           SKY/WX    TMP DP  RH WIND       PRES   REMARKS
MONTEVIDEO     LGT RAIN  77  72  83 SW8       29.87F
GRANITE FALLS  CLOUDY    77  71  82 CALM      29.88S
CANBY          PTSUNNY   78  69  72 SE9       29.84F
MARSHALL       CLOUDY    75  66  73 SE12      29.87F
REDWOOD FALLS  LGT RAIN  79  72  79 S10       29.88R
OLIVIA         CLOUDY    79  68  69 S7        29.87S
PIPESTONE      MOSUNNY   79  70  73 SE10G17   29.87S
WINDOM         LGT RAIN  77  72  83 S6        29.92F
WORTHINGTON    CLOUDY    79  70  73 SE8       29.90S
JACKSON        CLOUDY    77  72  83 SE7       29.93F
TRACY          CLOUDY    77  71  82 S8        29.89S
SLAYTON        PTSUNNY   78  71  79 CALM      29.90S
$$
MNZ065>067-074>077-082>085-091>093-050000-
   South Central Minnesota

CITY           SKY/WX    TMP DP  RH WIND       PRES   REMARKS
MANKATO        PTSUNNY   84  72  65 S9        29.91R
NEW ULM        PTSUNNY   82  72  69 S6        29.89R
ST JAMES       LGT RAIN  81  75  83 S7        29.92S
FAIRMONT       CLOUDY    81  68  65 S5        29.93R
GLENCOE        PTSUNNY   86  75  68 S5        29.89R HX  95
FARIBAULT      PTSUNNY   88  73  62 SE12      29.92S HX  96
OWATONNA       PTSUNNY   86  72  62 S9        29.93R HX  92
WASECA         PTSUNNY   84  72  65 S9        29.93S
ALBERT LEA     PTSUNNY   84  72  65 S10       29.94R
$$
MNZ078>079-086>088-094>096-050000-
   Southeast Minnesota

CITY           SKY/WX    TMP DP  RH WIND       PRES   REMARKS
ROCHESTER      SUNNY     84  72  67 S9        29.96R
RED WING       SUNNY     88  72  58 SE9       29.91R HX  94
STANTON        MOSUNNY   86  72  62 SE6       29.90S HX  91
DODGE CENTER   MOSUNNY   82  72  69 CALM      29.95S
WINONA         MOSUNNY   90  72  55 CALM      29.94S HX  96
AUSTIN         MOSUNNY   84  73  70 S7        29.94S HX  91
PRESTON        SUNNY     84  70  61 S8        29.98R
$$
ABBREVIATIONS USED IN REMARKS
   TC - TEMPERATURES IN CELSIUS
  WCI - WIND CHILL INDEX
   HX - HEAT INDEX
  VSB - VISIBILITY
$$


USA.gov is the U.S. government's official web portal to all federal, state and local government web resources and services.